• In Österreich
  • Länderverzeichnis
  • Für 7 Tage
  • Wassertemperatur
  • Satellitenkarten
  • Wetterkarte
  • News
  • Widgets
  • user-avatar
    Anmelden

    Stündliche Wetter Chyhrynivka

    Heute, 18 August, Samstag

    Zeit Temperatur Niederschläge Wind Luftdruck Luftfeuchtigkeit
    00:00 +25°C° 0 mm 4 m/S 750 mmHg 48%
    01:00 +25°C° 0 mm 3 m/S 750 mmHg 52%
    02:00 +24°C° 0 mm 3 m/S 750 mmHg 55%
    03:00 +22°C° 0 mm 3 m/S 750 mmHg 60%
    04:00 +22°C° 0 mm 3 m/S 750 mmHg 64%
    05:00 +21°C° 0 mm 3 m/S 750 mmHg 69%
    06:00 +23°C° 0 mm 4 m/S 751 mmHg 65%
    07:00 +25°C° 0 mm 4 m/S 751 mmHg 62%
    08:00 +26°C° 0 mm 4 m/S 751 mmHg 59%
    09:00 +28°C° 0 mm 4 m/S 751 mmHg 52%
    10:00 +30°C° 0 mm 4 m/S 751 mmHg 46%
    11:00 +33°C° 0 mm 4 m/S 751 mmHg 40%
    12:00 +33°C° 0 mm 4 m/S 751 mmHg 37%
    13:00 +34°C° 0 mm 5 m/S 751 mmHg 35%
    14:00 +34°C° 0 mm 5 m/S 751 mmHg 33%
    15:00 +34°C° 0 mm 5 m/S 751 mmHg 34%
    16:00 +33°C° 0 mm 5 m/S 751 mmHg 35%
    17:00 +32°C° 0 mm 5 m/S 751 mmHg 36%
    18:00 +30°C° 0 mm 5 m/S 751 mmHg 39%
    19:00 +28°C° 0 mm 4 m/S 751 mmHg 43%
    20:00 +26°C° 0 mm 4 m/S 752 mmHg 46%
    21:00 +25°C° 0 mm 4 m/S 752 mmHg 48%
    22:00 +23°C° 0 mm 4 m/S 752 mmHg 49%
    23:00 +22°C° 0 mm 4 m/S 752 mmHg 51%

    Morgen, 19 August, Sonntag

    Zeit Temperatur Niederschläge Wind Luftdruck Luftfeuchtigkeit
    00:00 +21°C° 0 mm 3 m/S 752 mmHg 53%
    01:00 +20°C° 0 mm 3 m/S 753 mmHg 54%
    02:00 +20°C° 0 mm 3 m/S 753 mmHg 56%
    03:00 +19°C° 0 mm 3 m/S 753 mmHg 57%
    04:00 +19°C° 0 mm 3 m/S 753 mmHg 57%
    05:00 +18°C° 0 mm 3 m/S 753 mmHg 58%
    06:00 +20°C° 0 mm 3 m/S 753 mmHg 54%
    07:00 +21°C° 0 mm 4 m/S 754 mmHg 49%
    08:00 +23°C° 0 mm 4 m/S 754 mmHg 45%
    09:00 +26°C° 0 mm 4 m/S 754 mmHg 39%
    10:00 +27°C° 0 mm 4 m/S 754 mmHg 34%
    11:00 +28°C° 0 mm 4 m/S 753 mmHg 29%
    12:00 +29°C° 0 mm 4 m/S 753 mmHg 28%
    13:00 +30°C° 0 mm 4 m/S 753 mmHg 26%
    14:00 +30°C° 0 mm 4 m/S 753 mmHg 24%
    15:00 +30°C° 0 mm 3 m/S 752 mmHg 25%
    16:00 +30°C° 0 mm 3 m/S 752 mmHg 25%
    17:00 +29°C° 0 mm 3 m/S 752 mmHg 26%
    18:00 +28°C° 0 mm 3 m/S 752 mmHg 30%
    19:00 +26°C° 0 mm 3 m/S 752 mmHg 33%
    20:00 +24°C° 0 mm 3 m/S 752 mmHg 36%
    21:00 +22°C° 0 mm 3 m/S 752 mmHg 37%
    22:00 +21°C° 0 mm 2 m/S 753 mmHg 38%
    23:00 +21°C° 0 mm 2 m/S 753 mmHg 39%

    übermorgen, 20 August, Montag

    Zeit Temperatur Niederschläge Wind Luftdruck Luftfeuchtigkeit
    00:00 +20°C° 0 mm 2 m/S 753 mmHg 40%
    01:00 +19°C° 0 mm 2 m/S 752 mmHg 41%
    02:00 +19°C° 0 mm 2 m/S 752 mmHg 42%
    03:00 +18°C° 0 mm 2 m/S 752 mmHg 42%
    04:00 +18°C° 0 mm 2 m/S 752 mmHg 43%
    05:00 +17°C° 0 mm 2 m/S 753 mmHg 43%
    06:00 +19°C° 0 mm 2 m/S 753 mmHg 40%
    07:00 +21°C° 0 mm 2 m/S 753 mmHg 37%
    08:00 +24°C° 0 mm 2 m/S 753 mmHg 34%
    09:00 +26°C° 0 mm 2 m/S 753 mmHg 31%
    10:00 +27°C° 0 mm 3 m/S 753 mmHg 28%
    11:00 +28°C° 0 mm 3 m/S 753 mmHg 25%
    12:00 +29°C° 0 mm 3 m/S 752 mmHg 24%
    13:00 +30°C° 0 mm 3 m/S 752 mmHg 23%
    14:00 +30°C° 0 mm 2 m/S 752 mmHg 22%
    15:00 +30°C° 0 mm 2 m/S 752 mmHg 22%
    16:00 +30°C° 0 mm 2 m/S 751 mmHg 23%
    17:00 +30°C° 0 mm 2 m/S 751 mmHg 23%
    18:00 +28°C° 0 mm 2 m/S 751 mmHg 26%
    19:00 +26°C° 0 mm 2 m/S 751 mmHg 29%
    20:00 +24°C° 0 mm 2 m/S 752 mmHg 32%
    21:00 +23°C° 0 mm 2 m/S 751 mmHg 33%
    22:00 +23°C° 0 mm 2 m/S 751 mmHg 34%
    23:00 +21°C° 0 mm 2 m/S 751 mmHg 35%

    21 August, Dienstag

    Zeit Temperatur Niederschläge Wind Luftdruck Luftfeuchtigkeit
    00:00 +22°C° 0 mm 1 m/S 751 mmHg 36%
    01:00 +21°C° 0 mm 1 m/S 751 mmHg 37%
    02:00 +21°C° 0 mm 1 m/S 751 mmHg 38%
    03:00 +20°C° 0 mm 1 m/S 751 mmHg 39%
    04:00 +20°C° 0 mm 1 m/S 751 mmHg 40%
    05:00 +19°C° 0 mm 1 m/S 751 mmHg 41%
    06:00 +22°C° 0 mm 1 m/S 751 mmHg 38%
    07:00 +24°C° 0 mm 1 m/S 752 mmHg 35%
    08:00 +26°C° 0 mm 1 m/S 752 mmHg 32%
    09:00 +27°C° 0 mm 1 m/S 752 mmHg 29%
    10:00 +29°C° 0 mm 2 m/S 751 mmHg 26%
    11:00 +30°C° 0 mm 2 m/S 751 mmHg 23%
    12:00 +31°C° 0 mm 2 m/S 751 mmHg 22%
    13:00 +32°C° 0 mm 2 m/S 751 mmHg 21%
    14:00 +32°C° 0 mm 2 m/S 750 mmHg 20%
    15:00 +32°C° 0 mm 2 m/S 750 mmHg 21%
    16:00 +32°C° 0 mm 2 m/S 750 mmHg 22%
    17:00 +32°C° 0 mm 1 m/S 750 mmHg 22%
    18:00 +30°C° 0 mm 1 m/S 750 mmHg 25%
    19:00 +28°C° 0 mm 1 m/S 750 mmHg 27%
    20:00 +26°C° 0 mm 1 m/S 750 mmHg 30%
    21:00 +26°C° 0 mm 1 m/S 750 mmHg 30%
    22:00 +25°C° 0 mm 2 m/S 750 mmHg 30%
    23:00 +25°C° 0 mm 2 m/S 750 mmHg 30%

    22 August, Mittwoch

    Zeit Temperatur Niederschläge Wind Luftdruck Luftfeuchtigkeit
    00:00 +24°C° 0 mm 2 m/S 750 mmHg 32%
    01:00 +24°C° 0 mm 2 m/S 750 mmHg 34%
    02:00 +23°C° 0 mm 2 m/S 750 mmHg 35%
    03:00 +23°C° 0 mm 2 m/S 750 mmHg 39%
    04:00 +23°C° 0 mm 2 m/S 750 mmHg 43%
    05:00 +21°C° 0 mm 2 m/S 750 mmHg 47%
    06:00 +24°C° 0,1 mm 3 m/S 750 mmHg 50%
    07:00 +25°C° 0,1 mm 3 m/S 750 mmHg 53%
    08:00 +27°C° 0,1 mm 3 m/S 751 mmHg 56%
    09:00 +28°C° 0 mm 4 m/S 751 mmHg 53%
    10:00 +29°C° 0 mm 4 m/S 751 mmHg 50%
    11:00 +32°C° 0 mm 4 m/S 751 mmHg 47%
    12:00 +32°C° 0 mm 4 m/S 750 mmHg 45%
    13:00 +32°C° 0 mm 5 m/S 750 mmHg 43%
    14:00 +32°C° 0 mm 5 m/S 750 mmHg 42%
    15:00 +30°C° 0 mm 5 m/S 750 mmHg 42%
    16:00 +30°C° 0 mm 5 m/S 750 mmHg 42%
    17:00 +29°C° 0 mm 5 m/S 751 mmHg 42%
    18:00 +27°C° 0 mm 5 m/S 751 mmHg 45%
    19:00 +26°C° 0 mm 4 m/S 751 mmHg 48%
    20:00 +23°C° 0 mm 4 m/S 752 mmHg 52%
    21:00 +22°C° 0 mm 4 m/S 752 mmHg 53%
    22:00 +21°C° 0 mm 4 m/S 752 mmHg 55%
    23:00 +21°C° 0 mm 4 m/S 752 mmHg 57%

    23 August, Donnerstag

    Zeit Temperatur Niederschläge Wind Luftdruck Luftfeuchtigkeit
    00:00 +20°C° 0 mm 4 m/S 752 mmHg 59%
    01:00 +19°C° 0 mm 4 m/S 752 mmHg 60%
    02:00 +19°C° 0 mm 3 m/S 752 mmHg 61%
    03:00 +18°C° 0 mm 3 m/S 752 mmHg 61%
    04:00 +17°C° 0 mm 3 m/S 752 mmHg 61%
    05:00 +17°C° 0 mm 3 m/S 752 mmHg 61%
    06:00 +19°C° 0 mm 4 m/S 752 mmHg 56%
    07:00 +20°C° 0 mm 4 m/S 752 mmHg 51%
    08:00 +22°C° 0 mm 4 m/S 753 mmHg 46%
    09:00 +23°C° 0 mm 4 m/S 752 mmHg 42%
    10:00 +26°C° 0 mm 4 m/S 752 mmHg 37%
    11:00 +28°C° 0 mm 4 m/S 752 mmHg 32%
    12:00 +28°C° 0 mm 4 m/S 752 mmHg 30%
    13:00 +29°C° 0 mm 4 m/S 751 mmHg 28%
    14:00 +30°C° 0 mm 3 m/S 751 mmHg 25%
    15:00 +29°C° 0 mm 3 m/S 751 mmHg 25%
    16:00 +29°C° 0 mm 3 m/S 751 mmHg 25%
    17:00 +29°C° 0 mm 3 m/S 750 mmHg 25%
    18:00 +27°C° 0 mm 3 m/S 751 mmHg 28%
    19:00 +25°C° 0 mm 3 m/S 751 mmHg 31%
    20:00 +22°C° 0 mm 3 m/S 751 mmHg 34%
    21:00 +21°C° 0 mm 3 m/S 751 mmHg 36%
    22:00 +20°C° 0 mm 3 m/S 751 mmHg 38%
    23:00 +19°C° 0 mm 3 m/S 751 mmHg 40%
    Mehr zeigen